User: anonymous   Login
Location: Unspecified
(0.0000°N, 0.0000°E)
Time: 19:29:17
(UTC+00:00)
Language:

STARLINK-31980 - Orbit

View from above orbital plane
View from above orbital plane
View from above satellite
View from above satellite

Ground track
Ground track

The orbit is defined by the following mean orbital elements,

1 59962U          26145.49042425 +.00000000 +00000-0 +56951-4 0 00002
2 59962  53.1611  68.8917 0001090  98.1308 261.9817 15.30203383    00
Epoch (UTC): 25 May 2026 11:46:12
Eccentricity: 0.0001090
inclination: 53.1611°
perigee height: 474 km
apogee height: 476 km
right ascension of ascending node: 68.8917°
argument of perigee: 98.1308°
revolutions per day: 15.30203383
mean anomaly at epoch: 261.9817°

The dashed part of the orbit path shows where the satellite is in the earth's shadow,  

DLR